Location: Ellerstadt
(49.4644°N, 8.2615°E)
Time: 01:21:01
(UTC+00:00)

Vanguard 2 - Visible Passes

Search period start: 13 June 2021 00:00
Search period end: 23 June 2021 00:00
Orbit: 552 x 2937 km, 32.9° (Epoch: 12 June)

Date Brightness Start Highest point End Pass type
(mag) Time Alt. Az. Time Alt. Az. Time Alt. Az.
13 Jun 9.3 20:16:12 10° SW 20:20:09 16° S 20:23:20 10° SSE visible
14 Jun 9.3 20:33:24 10° SW 20:37:33 16° S 20:40:49 10° SSE visible
15 Jun 9.3 20:50:50 10° SW 20:54:54 16° SSW 20:57:37 12° SSE visible
16 Jun 9.4 21:08:31 10° SW 21:12:11 15° SSW 21:14:23 12° S visible
17 Jun 9.5 21:26:32 10° SW 21:29:25 13° SSW 21:31:07 12° S visible
18 Jun 9.7 21:45:26 10° SW 21:46:35 10° SSW 21:47:41 10° SSW visible
21 Jun 9.8 20:25:41 10° WSW 20:31:16 18° SSW 20:35:32 10° SSE visible
22 Jun 10.0 20:43:56 10° WSW 20:48:22 15° SSW 20:51:57 10° S visible
